Tracking 28799 objects as of 18-Apr-2024
HD Live streaming from Space Station
objects crossing your sky now

OBJECT K

Track OBJECT K now!
10-day predictions


NORAD ID: 55257
Int'l Code: 2023-007K
Perigee: 443.3 km
Apogee: 453.4 km
Inclination: 97.3 °
Period: 93.4 minutes
Semi major axis: 6819 km
RCS: Unknown
Launch date: January 15, 2023
Source: People's Republic of China (PRC)
Launch site: Taiyaun Space Center, China (TSC)
Your satellite tracking list
Your tracking list is empty




NASA's NSSDC Master Catalog

Two Line Element Set (TLE):
1 55257U 23007K   24108.91721751  .00049519  00000-0  11701-2 0  9994
2 55257  97.3214 185.1066 0007402  90.8545 269.3550 15.41656808 70251
Source of the keplerian elements: AFSPC